This is the latest recevied weather packets stored in our database for station/object AD7ZD. If no packets are shown the sender has not sent any weather packets the latest 10 day(s).
| Time | Temp. | Humidity | Pressure | Rain* | Wind** | Luminosity | Snow |
|---|---|---|---|---|---|---|---|
| 1778198335 | 27.78° C | 15% | 1013.6 hPa | 0 mm | - | 393 W/m² | - |
| 1778198033 | 27.78° C | 14% | 1013.8 hPa | 0 mm | - | 369 W/m² | - |
| 1778197729 | 27.22° C | 15% | 1014.1 hPa | 0 mm | - | 433 W/m² | - |
| 1778197426 | 27.78° C | 13% | 1013.9 hPa | 0 mm | - | 429 W/m² | - |
| 1778197122 | 27.78° C | 15% | 1014.1 hPa | 0 mm | - | 273 W/m² | - |
| 1778196820 | 27.78° C | 13% | 1013.9 hPa | 0 mm | - | 399 W/m² | - |
| 1778196518 | 27.78° C | 17% | 1013.9 hPa | 0 mm | - | 509 W/m² | - |
| 1778196214 | 27.78° C | 14% | 1013.8 hPa | 0 mm | - | 535 W/m² | - |
| 1778195912 | 28.33° C | 16% | 1013.8 hPa | 0 mm | - | 519 W/m² | - |
| 1778195608 | 28.33° C | 15% | 1013.8 hPa | 0 mm | - | 569 W/m² | - |
| 1778195304 | 28.33° C | 17% | 1013.9 hPa | 0 mm | - | 577 W/m² | - |
| 1778195002 | 27.78° C | 16% | 1014.1 hPa | 0 mm | - | 531 W/m² | - |
| 1778194702 | 28.33° C | 16% | 1013.8 hPa | 0 mm | - | 558 W/m² | - |
| 1778194398 | 27.78° C | 16% | 1013.9 hPa | 0 mm | - | 590 W/m² | - |
| 1778194094 | 27.78° C | 17% | 1014.2 hPa | 0 mm | - | 587 W/m² | - |
| 1778193791 | 28.33° C | 16% | 1014.1 hPa | 0 mm | - | 575 W/m² | - |
| 1778193487 | 27.78° C | 16% | 1014.1 hPa | 0 mm | - | 592 W/m² | - |
| 1778193183 | 27.78° C | 17% | 1014.2 hPa | 0 mm | - | 580 W/m² | - |
| 1778192881 | 27.78° C | 16% | 1014.2 hPa | 0 mm | - | 628 W/m² | - |
| 1778192577 | 27.78° C | 17% | 1014.3 hPa | 0 mm | - | 599 W/m² | - |
| 1778192274 | 28.33° C | 16% | 1014.4 hPa | 0 mm | - | 620 W/m² | - |
| 1778191970 | 28.33° C | 16% | 1014.3 hPa | 0 mm | - | 595 W/m² | - |
| 1778191666 | 27.78° C | 16% | 1014.3 hPa | 0 mm | - | 657 W/m² | - |
| 1778191365 | 28.33° C | 16% | 1014.5 hPa | 0 mm | - | 674 W/m² | - |
| 1778191061 | 27.78° C | 18% | 1014.5 hPa | 0 mm | - | 689 W/m² | - |
* Rain latest hour (hover to see other rain measurements)
** Current wind speed in m/s (hover to see current wind gust speed)